(350886) = 2002 QZ118

Discovered at Palomar on 2002-08-18 by NEAT.

Orbit

Orbit type: Main Belt

Note: WebGL enabled browser required.

epoch2023-02-25.0
epoch JD2460000.5
perihelion date2020-08-17.81748
perihelion JD2459079.31748
argument of perihelion (°)23.79477
ascending node (°)337.20555
inclination (°)4.70364
eccentricity0.1424433
perihelion distance (AU)2.3066107
Tisserand w.r.t. Jupiter3.4
ΔV w.r.t. Earth (km/sec)9.6
semimajor axis (AU)2.6897471
mean anomaly (°)205.81753
mean daily motion (°/day)0.22342750
aphelion distance (AU)3.073
period (years)4.41
P-vector [x]0.99932117
P-vector [y]0.00170776
P-vector [z]0.03680058
Q-vector [x]-0.01865180
Q-vector [y]0.88489004
Q-vector [z]0.46542639
absolute magnitude17.37
phase slope0.15
uncertainty0
referenceMPO 745323
observations used176
oppositions11
arc length (days)7594
first opposition used2002
last opposition used2023
residual rms (arc-secs)0.80
perturbers coarse indicatorM-v
perturbers precise indicator003Ek
first observation date used2002-07-29.0
last observation date used2023-05-14.0
computer nameMPCLINUX
JD of orbit computation2456311.075365
perihelion JD uncertainty (days)1.3466E-04
argument of perihelion uncertainty (°)7.2015E-05
ascending node uncertainty (°)6.1639E-05
inclination uncertainty (°)5.9517E-06
eccentricity uncertainty 6.9948E-08
perihelion distance uncertainty (AU)1.8377E-07
Minimum Orbit Intersection Distances (in AU)
for orbit epoch: 2460000.5, reference: E2023-JF5
Mercury1.94043
Venus1.58431
Earth1.30251
Mars0.91484
Jupiter2.36774
Saturn6.26967
Uranus15.3804
Neptune27.4608

Observations

185 total observations over interval: 2002 07 29.24118 – 2023 05 14.338413
These data are available for download (format description).

Date (UT) J2000 RA J2000 Dec Magn Location Ref
2002 07 29.24118 21 49 27.20 -16 15 43.4   644 – Palomar Mountain/NEAT MPS 213679
2002 07 29.30417 21 49 24.21 -16 15 51.9   644 – Palomar Mountain/NEAT MPS 213679
2002 07 29.37664 21 49 20.79 -16 16 00.2   644 – Palomar Mountain/NEAT MPS 213679
2002 08 08.38027 21 40 59.82 -16 37 49.6 19.7 R 644 – Palomar Mountain/NEAT MPS 213679
2002 08 08.39132 21 40 59.19 -16 37 51.7 20.4 R 644 – Palomar Mountain/NEAT MPS 213679
2002 08 08.40226 21 40 58.59 -16 37 52.7 20.1 R 644 – Palomar Mountain/NEAT MPS 213679
2002 08 18.36325 21 31 48.25 -16 58 30.3 19.8 R 644 – Palomar Mountain/NEAT MPS 213679
2002 08 18.37499 21 31 47.55 -16 58 31.4 20.3 R 644 – Palomar Mountain/NEAT MPS 213679
2002 08 18.38784 21 31 46.84 -16 58 32.6   644 – Palomar Mountain/NEAT MPS 213679
2002 08 29.20377 21 22 18.31 -17 13 58.5 21.2 V 291 – LPL/Spacewatch II MPS 214268
2002 08 29.22804 21 22 17.07 -17 14 00.0 21.0 V 291 – LPL/Spacewatch II MPS 214268
2002 08 29.25206 21 22 15.86 -17 14 01.3 20.9 V 291 – LPL/Spacewatch II MPS 214268
2002 09 01.22618 21 19 56.45 -17 16 24.8   644 – Palomar Mountain/NEAT MPS 213679
2002 09 01.29939 21 19 52.98 -17 16 27.5   644 – Palomar Mountain/NEAT MPS 213679
2002 09 15.12524 21 11 44.75 -17 14 42.6   644 – Palomar Mountain/NEAT MPS 213679
2002 09 15.14623 21 11 44.22 -17 14 41.9   644 – Palomar Mountain/NEAT MPS 213679
2002 09 15.16736 21 11 43.67 -17 14 40.8   644 – Palomar Mountain/NEAT MPS 213679
2007 10 09.43539 03 30 20.74 +25 43 15.3 21.1 V 691 – Steward Observatory, Kitt Peak-Spacewatch MPS 224694
2007 10 09.45308 03 30 20.29 +25 43 17.1 20.8 V 691 – Steward Observatory, Kitt Peak-Spacewatch MPS 224694
2007 10 09.47076 03 30 19.81 +25 43 18.6 21.2 V 691 – Steward Observatory, Kitt Peak-Spacewatch MPS 224694
2007 10 18.44562 03 25 29.93 +25 52 06.1 20.5 V 691 – Steward Observatory, Kitt Peak-Spacewatch MPS 224694
2007 10 18.46337 03 25 29.19 +25 52 06.3 20.5 V 691 – Steward Observatory, Kitt Peak-Spacewatch MPS 224694
2007 10 18.48110 03 25 28.43 +25 52 06.6 20.5 V 691 – Steward Observatory, Kitt Peak-Spacewatch MPS 224694
2007 11 01.15283 03 14 11.98 +25 41 14.6   691 – Steward Observatory, Kitt Peak-Spacewatch MPS 224694
2007 11 01.17048 03 14 10.98 +25 41 11.4   691 – Steward Observatory, Kitt Peak-Spacewatch MPS 224694
2007 11 01.18814 03 14 09.93 +25 41 10.0   691 – Steward Observatory, Kitt Peak-Spacewatch MPS 224694
2007 11 05.14488 03 10 19.44 +25 32 29.4 20.4 V 691 – Steward Observatory, Kitt Peak-Spacewatch MPS 224694
2007 11 05.16257 03 10 18.38 +25 32 26.6 20.4 V 691 – Steward Observatory, Kitt Peak-Spacewatch MPS 224694
2007 11 05.18027 03 10 17.27 +25 32 24.4 20.3 V 691 – Steward Observatory, Kitt Peak-Spacewatch MPS 224694
2007 11 07.32840 03 08 08.62 +25 26 45.3 20.6   704 – Lincoln Laboratory ETS, New Mexico MPS 224694
2007 11 07.34078 03 08 07.84 +25 26 43.1 20.5   704 – Lincoln Laboratory ETS, New Mexico MPS 224694
2007 11 07.35317 03 08 07.06 +25 26 40.7 20.5   704 – Lincoln Laboratory ETS, New Mexico MPS 224694
2007 11 07.36558 03 08 06.44 +25 26 39.4 20.6   704 – Lincoln Laboratory ETS, New Mexico MPS 224694
2007 11 17.08650 02 58 25.68 +24 53 51.6 20.5 V 691 – Steward Observatory, Kitt Peak-Spacewatch MPS 228217
2007 11 17.10165 02 58 24.78 +24 53 48.4 20.3 V 691 – Steward Observatory, Kitt Peak-Spacewatch MPS 228217
2007 11 17.11680 02 58 23.87 +24 53 45.0 20.5 V 691 – Steward Observatory, Kitt Peak-Spacewatch MPS 228217
2007 11 20.10149 02 55 33.80 +24 41 56.3 20.0 V 691 – Steward Observatory, Kitt Peak-Spacewatch MPS 228948
2007 11 20.11914 02 55 32.80 +24 41 51.5 20.3 V 691 – Steward Observatory, Kitt Peak-Spacewatch MPS 228948
2007 11 20.13681 02 55 31.84 +24 41 47.5 20.3 V 691 – Steward Observatory, Kitt Peak-Spacewatch MPS 228948
2011 09 20.33779 23 03 33.784 -04 01 55.65 20.6 w F51 – Pan-STARRS 1, Haleakala MPS 391061
2011 09 20.35290 23 03 33.003 -04 01 58.09 20.5 w F51 – Pan-STARRS 1, Haleakala MPS 391061
2011 09 20.36809 23 03 32.206 -04 02 00.47 20.5 w F51 – Pan-STARRS 1, Haleakala MPS 391061
2011 09 20.38331 23 03 31.422 -04 02 02.87 20.5 w F51 – Pan-STARRS 1, Haleakala MPS 391061
2011 09 23.26686 23 01 11.92 -04 09 29.6 20.3 V G96 – Mt. Lemmon Survey MPS 391061
2011 09 23.27199 23 01 11.67 -04 09 30.4 20.2 V G96 – Mt. Lemmon Survey MPS 391061
2011 09 23.27722 23 01 11.38 -04 09 31.2 20.1 V G96 – Mt. Lemmon Survey MPS 391061
2011 09 23.28249 23 01 11.17 -04 09 31.6 20.0 V G96 – Mt. Lemmon Survey MPS 391061
2011 09 30.24457 22 56 08.52 -04 25 05.2 20.5 V G96 – Mt. Lemmon Survey MPS 392591
2011 09 30.25207 22 56 08.19 -04 25 06.0 20.4 V G96 – Mt. Lemmon Survey MPS 392591
2011 09 30.25962 22 56 07.90 -04 25 06.9 20.4 V G96 – Mt. Lemmon Survey MPS 392591
2011 09 30.26719 22 56 07.58 -04 25 07.7 20.3 V G96 – Mt. Lemmon Survey MPS 392591
2011 10 25.10481 22 47 58.55 -04 35 32.3 19.2 J W91 – VHS-VISTA, Cerro Paranal MPS 678726
2011 10 25.10674 22 47 58.55 -04 35 32.0 19.6 J W91 – VHS-VISTA, Cerro Paranal MPS 678726
2011 10 25.10968 22 47 58.53 -04 35 31.8 20.1 Y W91 – VHS-VISTA, Cerro Paranal MPS 678726
2012 12 23.56275 08 25 18.093 +24 18 21.87 21.5 w F51 – Pan-STARRS 1, Haleakala MPS 448505
2012 12 23.57718 08 25 17.459 +24 18 23.88 21.4 w F51 – Pan-STARRS 1, Haleakala MPS 448505
2012 12 23.59161 08 25 16.826 +24 18 25.66 21.8 w F51 – Pan-STARRS 1, Haleakala MPS 448505
2013 01 16.49895 08 03 12.531 +25 11 58.87 21.1 w F51 – Pan-STARRS 1, Haleakala MPS 450924
2013 01 16.51337 08 03 11.602 +25 12 00.23 21.0 w F51 – Pan-STARRS 1, Haleakala MPS 450924
2013 01 16.54237 08 03 09.726 +25 12 03.17 21.2 w F51 – Pan-STARRS 1, Haleakala MPS 450925
2013 01 18.20230 08 01 25.91 +25 14 50.6 20.8 V 691 – Steward Observatory, Kitt Peak-Spacewatch MPS 450925
2013 01 18.21745 08 01 24.95 +25 14 51.6 21.4 V 691 – Steward Observatory, Kitt Peak-Spacewatch MPS 450925
2013 01 18.23257 08 01 23.93 +25 14 53.1 21.6 V 691 – Steward Observatory, Kitt Peak-Spacewatch MPS 450925
2013 02 12.27680 07 38 32.854 +25 28 37.95 21.5 w F51 – Pan-STARRS 1, Haleakala MPS 456306
2013 02 12.28998 07 38 32.287 +25 28 37.73 21.5 w F51 – Pan-STARRS 1, Haleakala MPS 456306
2013 02 12.30317 07 38 31.740 +25 28 37.45 21.6 w F51 – Pan-STARRS 1, Haleakala MPS 456306
2013 02 12.31642 07 38 31.168 +25 28 36.80 21.7 w F51 – Pan-STARRS 1, Haleakala MPS 456306
2013 02 16.11565 07 36 07.78 +25 25 57.0 21.6 V 691 – Steward Observatory, Kitt Peak-Spacewatch MPS 457279
2013 02 16.14345 07 36 06.85 +25 25 54.7 22.2 V 691 – Steward Observatory, Kitt Peak-Spacewatch MPS 457279
2013 02 16.15992 07 36 06.17 +25 25 55.2 21.6 V 691 – Steward Observatory, Kitt Peak-Spacewatch MPS 457279
2015 06 19.47359 19 46 49.815 -27 19 46.82 21.1 w F51 – Pan-STARRS 1, Haleakala MPS 614080
2015 06 19.48359 19 46 49.400 -27 19 47.98 20.9 w F51 – Pan-STARRS 1, Haleakala MPS 614080
2015 06 19.49359 19 46 48.985 -27 19 49.22 20.9 w F51 – Pan-STARRS 1, Haleakala MPS 614080
2015 06 19.50358 19 46 48.573 -27 19 50.24 21.0 w F51 – Pan-STARRS 1, Haleakala MPS 614080
2016 12 01.25824 04 54 33.45 +30 17 36.2 20.9 V G96 – Mt. Lemmon Survey MPS 749332
2016 12 01.26255 04 54 33.17 +30 17 35.6 20.7 V G96 – Mt. Lemmon Survey MPS 749332
2016 12 01.26695 04 54 32.86 +30 17 34.7 20.6 V G96 – Mt. Lemmon Survey MPS 749332
2016 12 01.27123 04 54 32.51 +30 17 34.3 20.4 V G96 – Mt. Lemmon Survey MPS 749332
2016 12 08.40706 04 46 46.51 +30 03 12.9 19.9 V G96 – Mt. Lemmon Survey MPS 751709
2016 12 08.41354 04 46 46.09 +30 03 10.7 20.4 V G96 – Mt. Lemmon Survey MPS 751709
2016 12 08.41785 04 46 45.83 +30 03 10.3 20.2 V G96 – Mt. Lemmon Survey MPS 751709
2016 12 08.42212 04 46 45.52 +30 03 09.5 19.9 V G96 – Mt. Lemmon Survey MPS 751709
2016 12 08.46763 04 46 42.58 +30 03 02.3 19.9 V G96 – Mt. Lemmon Survey MPS 751709
2016 12 08.47156 04 46 42.26 +30 03 01.7 21.0 V G96 – Mt. Lemmon Survey MPS 751709
2016 12 08.47299 04 46 42.14 +30 03 01.6 20.8 V G96 – Mt. Lemmon Survey MPS 751709
2016 12 08.47444 04 46 42.08 +30 03 01.2 20.6 V G96 – Mt. Lemmon Survey MPS 751709
2016 12 22.42601 04 32 59.329 +29 20 58.70 20.8 w F51 – Pan-STARRS 1, Haleakala MPS 753692
2016 12 22.43812 04 32 58.671 +29 20 56.09 21.2 w F51 – Pan-STARRS 1, Haleakala MPS 753693
2016 12 22.45025 04 32 58.038 +29 20 53.57 20.8 w F51 – Pan-STARRS 1, Haleakala MPS 753693
